COSMOS 1275 DEB

Satellite information

Favourite Embed

Satellite Type and Status

DEBRISIN ORBIT

Key statistics

Satellite COSMOS 1275 DEB at a glance.

Uptime

16264

Days in orbit

Revolutions

≈ 14.3

Per day

Orbit

LEO

Low Earth Orbit

Inclination

82.9

Latest

Satellite identification and parameters

Extended collection of information and parameters for COSMOS 1275 DEB.

Object identification

Identified? True

Debris? True

Object name: COSMOS 1275 DEB

International designator: 1981-053CP

Object number (NORAD): 12746

Object ID (CCSDS): 12746

Country: COMMONWEALTH OF INDEPENDENT STATES (CIS)

Current information (Y/N): Y

RCS size: SMALL

Orbital parameters

Period: 100.76 minutes

Inclination: 82.9358 deg

SMA: 7172.729 km

Apoapsis: 822.219 km

Periapsis: 766.969 km

RAAN: 304.8496 deg

Eccentricy: 0.00385138

Argument of periapsis: 111.2666 deg

Mean anomaly: 249.264 deg

Mean motion: 14.2914447 rev/day

Mean motion (dot): 0.00008044 rev/day2

B* drag term: 0.0031383501 1/REarth

Two-line elements (TLE)

Creation date: Dec. 12, 2025, 10:14 a.m.

Reference frame: TEME

Reference center: EARTH

Epoch: Dec. 12, 2025, 7:04 a.m. UTC

TLE line 0: 0 COSMOS 1275 DEB

TLE line 1: 1 12746U 81053CP 25346.29466954 .00008044 00000-0 31384-2 0 9999

TLE line 2: 2 12746 82.9358 304.8496 0038514 111.2666 249.2640 14.29144470260354

Live tracking on map

Real-time ground track for satellite COSMOS 1275 DEB.

In-orbit conjunctions

A list of the most updated potential collisions computed for object COSMOS 1275 DEB.

Target Orbit TCA Probability of collision Miss distance Type
QUAKESAT SSO 2025-12-10 22:38:06 0.0008842266 403.0 (m) PAYLOAD
DELTA 1 DEB SSO 2025-07-12 04:48:49 0.0001031576 187.0 (m) DEBRIS
THOR ABLESTAR DEB LEO 2025-06-28 23:57:16 0.000172802 198.0 (m) DEBRIS
CZ-6A DEB LEO 2024-11-29 08:23:42 0.0001384241 289.0 (m) DEBRIS
NOAA 16 DEB SSO 2024-11-09 01:04:17 0.0008767932 223.0 (m) DEBRIS

Associated space launch

Navigation satellite providing location information for the Tsiklon-B navigation system

COSMOS 1275 DEB was lifted into orbit during the mission ‘Kosmos-3M | Parus 27’, on board a Kosmos-3M space rocket.

The launch took place on June 4, 1981, 3:41 p.m. from 132/2.

For more information about the launch, click the button.

Launch to space Kosmos-3M | Parus 27
Kosmos-3M | Parus 27

Agency: N/A

Status: Launch Successful

Launch date: June 4, 1981, 3:41 p.m. UTC

Rocket: Kosmos-3M

Launch pad: 132/2

Location: Plesetsk Cosmodrome, Russian Federation

...

Latest news about this satellite

There are no fresh news available about this satellite. Check back as we update our databases every day.


Newsletter sign-up

Weekly statistics, charts and insights to help you stay on top of the space industry.